Weather History for Sheringham Point, BC

Change the Weather History Date:

Thursday, July 25, 2013

  Actual Average Record
Temperature  
Mean Temperature 56 °F -  
Max Temperature 60 °F - - ()
Min Temperature 51 °F - - ()
Degree Days  
Heating Degree Days 10    
Growing Degree Days 6 (Base 50)    
Moisture  
Dew Point 52 °F    
Average Humidity 93    
Maximum Humidity 99    
Minimum Humidity 80    
Precipitation  
Precipitation 0.00 in - - ()
Sea Level Pressure  
Sea Level Pressure 30.08 in    
Wind  
Wind Speed 17 mph ()    
Max Wind Speed 29 mph    
Max Gust Speed 36 mph    
T = Trace of Precipitation, MM = Missing Value Source: Averaged Metar Reports

Daily Weather History Graph

Daily Weather History Graph

Search for Another Location

Airport:

Trip Planner

Search our weather history database for the weather conditions in past years. The results will help you decide how hot, cold, wet, or windy it might be!

Date:

Astronomy

Jul. 25, 2013 Rise Set
Actual Time 5:42 AM PDT 9:01 PM PDT
Civil Twilight 5:04 AM PDT 9:39 PM PDT
Nautical Twilight 4:14 AM PDT 10:29 PM PDT
Astronomical Twilight 3:08 AM PDT 11:33 PM PDT
Moon 10:20 PM PDT (7/25) 9:40 AM PDT (7/25)
Length of Visible Light 16h 35m
Length of Day
15h 19m
Waning Gibbous, 87% of the Moon is Illuminated
Jul 25
Waning Gibbous
Jul 29
Last Quarter
Aug 6
New
Aug 14
First Quarter
Aug 20
Full

Hourly Weather History & Observations

Time (PDT) Temp. Dew Point Humidity Pressure Visibility Wind Dir Wind Speed Gust Speed Precip Events Conditions
12:00 AM 52.9 °F 52.5 °F 99% 30.05 in - WNW 20.7 mph - N/A   Unknown
1:00 AM 52.2 °F 52.0 °F 99% 30.04 in - WNW 19.6 mph - N/A   Unknown
2:00 AM 52.2 °F 51.8 °F 99% 30.04 in - WNW 19.6 mph - N/A   Unknown
3:00 AM 51.8 °F 51.6 °F 99% 30.05 in - WNW 17.3 mph - N/A   Unknown
4:00 AM 51.8 °F 51.6 °F 99% 30.06 in - WNW 19.6 mph - N/A   Unknown
5:00 AM 52 °F 52 °F 99% 30.06 in - WNW 13.8 mph - -  
5:00 AM 52.0 °F 51.8 °F 99% 30.06 in - WNW 13.8 mph - N/A   Unknown
6:00 AM 51.6 °F 51.3 °F 99% 30.07 in - WNW 13.8 mph 19.6 mph N/A   Unknown
7:00 AM 53.2 °F 52.7 °F 98% 30.08 in - NW 10.4 mph - N/A   Unknown
8:00 AM 54.1 °F 53.6 °F 98% 30.09 in - WNW 11.5 mph - N/A   Unknown
9:00 AM 53.8 °F 52.5 °F 95% 30.10 in - WNW 15.0 mph - N/A   Unknown
10:00 AM 53.4 °F 51.3 °F 92% 30.10 in - WNW 12.7 mph - N/A   Unknown
11:00 AM 54.9 °F 52.0 °F 90% 30.11 in - WNW 15.0 mph - N/A   Unknown
12:00 PM 53.1 °F 51.4 °F 94% 30.11 in - WNW 15.0 mph - N/A   Unknown
1:00 PM 55.2 °F 52.9 °F 92% 30.11 in - WNW 15.0 mph 20.7 mph N/A   Unknown
2:00 PM 59.4 °F 53.2 °F 80% 30.09 in - WNW 23.0 mph - N/A   Unknown
3:00 PM 58.8 °F 52.7 °F 80% 30.09 in - WNW 25.3 mph - N/A   Unknown
4:00 PM 57.9 °F 52.5 °F 82% 30.09 in - WNW 26.5 mph 33.4 mph N/A   Unknown
5:00 PM 57 °F 53 °F 81% 30.09 in - WNW 25.3 mph - -  
5:00 PM 56.7 °F 52.9 °F 87% 30.09 in - WNW 25.3 mph 31.1 mph N/A   Unknown
6:00 PM 54.7 °F 52.2 °F 91% 30.08 in - WNW 25.3 mph 31.1 mph N/A   Unknown
7:00 PM 54.7 °F 52.3 °F 92% 30.08 in - WNW 28.8 mph 35.7 mph N/A   Unknown
8:00 PM 54.3 °F 52.2 °F 92% 30.08 in - WNW 28.8 mph - N/A   Unknown
9:00 PM 53.8 °F 51.8 °F 93% 30.07 in - WNW 25.3 mph - N/A   Unknown
10:00 PM 53.8 °F 51.4 °F 92% 30.08 in - WNW 24.2 mph - N/A   Unknown
11:00 PM 53 °F 51 °F 90% 30.09 in - WNW 18.4 mph - -  
11:00 PM 53.1 °F 50.9 °F 92% 30.09 in - WNW 18.4 mph - N/A   Unknown